Weather History for Window Rock, AZ

Change the Weather History Date:

Friday, February 15, 2013

  Actual Average Record
Temperature  
Mean Temperature 30 °F -  
Max Temperature 46 °F 47 °F 69 °F (2014)
Min Temperature 14 °F 20 °F -1 °F (1964)
Degree Days  
Heating Degree Days 35    
Moisture  
Dew Point 10 °F    
Average Humidity 52    
Maximum Humidity 88    
Minimum Humidity 16    
Precipitation  
Precipitation 0.00 in - - ()
Sea Level Pressure  
Sea Level Pressure 30.33 in    
Wind  
Wind Speed 4 mph (North)    
Max Wind Speed 20 mph    
Max Gust Speed 23 mph    
Visibility 10 miles    
Events      
Averages and records for this station are not official NWS values.
T = Trace of Precipitation, MM = Missing Value Source: NWS Daily Summary

Daily Weather History Graph

Daily Weather History Graph

Search for Another Location

Airport:

Trip Planner

Search our weather history database for the weather conditions in past years. The results will help you decide how hot, cold, wet, or windy it might be!

Date:

Astronomy

Feb. 15, 2013 Rise Set
Actual Time 7:02 AM MST 5:58 PM MST
Civil Twilight 6:36 AM MST 6:24 PM MST
Nautical Twilight 6:06 AM MST 6:54 PM MST
Astronomical Twilight 5:37 AM MST 7:24 PM MST
Moon 9:54 AM MST (2/15) 11:48 PM MST (2/15)
Length of Visible Light 11h 47m
Length of Day
10h 55m
Waxing Crescent, 31% of the Moon is Illuminated
Feb 15
Waxing Crescent
Feb 17
First Quarter
Feb 25
Full
Mar 4
Last Quarter
Mar 11
New

Hourly Weather History & Observations

Time (MST) Temp. Windchill Dew Point Humidity Pressure Visibility Wind Dir Wind Speed Gust Speed Precip Events Conditions
12:53 AM 23.0 °F 14.7 °F 16.0 °F 74% 30.23 in 10.0 mi North 6.9 mph - N/A   Clear
1:53 AM 21.9 °F - 14.0 °F 72% 30.24 in 10.0 mi Calm Calm - N/A   Clear
2:53 AM 18.0 °F - 14.0 °F 84% 30.27 in 10.0 mi Calm Calm - N/A   Clear
3:53 AM 18.0 °F - 14.0 °F 84% 30.26 in 10.0 mi Calm Calm - N/A   Clear
4:53 AM 15.1 °F - 12.0 °F 88% 30.29 in 10.0 mi Calm Calm - N/A   Clear
5:53 AM 17.1 °F - 12.0 °F 81% 30.32 in 10.0 mi Calm Calm - N/A   Clear
6:53 AM 14.0 °F - 10.0 °F 84% 30.36 in 10.0 mi Calm Calm - N/A   Clear
7:53 AM 17.1 °F - 12.9 °F 84% 30.37 in 10.0 mi Calm Calm - N/A   Clear
8:53 AM 25.0 °F - 17.1 °F 72% 30.36 in 10.0 mi Calm Calm - N/A   Clear
9:53 AM 36.0 °F 28.0 °F 14.0 °F 41% 30.31 in 10.0 mi North 11.5 mph - N/A   Clear
10:53 AM 39.9 °F 30.5 °F 8.1 °F 27% 30.30 in 10.0 mi NNE 19.6 mph 23.0 mph N/A   Clear
11:53 AM 41.0 °F 34.7 °F 8.1 °F 26% 30.32 in 10.0 mi NNW 10.4 mph - N/A   Clear
12:53 PM 44.1 °F 39.5 °F 7.0 °F 22% 30.28 in 10.0 mi North 8.1 mph - N/A   Clear
1:53 PM 46.0 °F 41.9 °F 5.0 °F 19% 30.26 in 10.0 mi NNE 8.1 mph 19.6 mph N/A   Clear
2:53 PM 46.9 °F - 3.0 °F 16% 30.27 in 10.0 mi North 11.5 mph 19.6 mph N/A   Clear
3:53 PM 46.9 °F - 1.9 °F 16% 30.28 in 10.0 mi North 10.4 mph 18.4 mph N/A   Clear
4:53 PM 45.0 °F 40.6 °F 3.0 °F 18% 30.32 in 10.0 mi North 8.1 mph - N/A   Clear
5:53 PM 39.0 °F 33.4 °F 6.1 °F 26% 30.35 in 10.0 mi North 8.1 mph - N/A   Clear
6:53 PM 33.1 °F - 8.1 °F 35% 30.40 in 10.0 mi Calm Calm - N/A   Clear
7:53 PM 32.0 °F 28.7 °F 9.0 °F 38% 30.42 in 10.0 mi Variable 3.5 mph - N/A   Clear
8:53 PM 30.0 °F 26.5 °F 10.9 °F 45% 30.41 in 10.0 mi Variable 3.5 mph - N/A   Clear
9:53 PM 26.1 °F - 12.0 °F 55% 30.40 in 10.0 mi Calm Calm - N/A   Clear
10:53 PM 24.1 °F 19.7 °F 12.0 °F 60% 30.40 in 10.0 mi NE 3.5 mph - N/A   Clear
11:53 PM 19.9 °F - 12.9 °F 74% 30.41 in 10.0 mi Calm Calm - N/A   Clear